FW0295 Weather Reports


Display with metric or nautical units.
time (UTC)temp
F
wind
direction
speed
MPH
gust
MPH
rain 1hr
in
rain 24hr
in
rain mn
in
humidity
%
barometer
mb
20260510230024 69 360 0.0 0.0 0.00 0.09 0.00 33 1022.0
20260510224523 69 360 0.0 0.0 0.00 0.09 0.00 33 1022.0
20260510223020 68 360 0.0 0.0 0.00 0.09 0.00 34 1022.2
20260510221519 68 360 0.0 0.0 0.00 0.09 0.00 33 1022.3
20260510220017 68 360 0.0 0.0 0.00 0.10 0.00 34 1022.4
20260510214518 68 360 0.0 0.0 0.00 0.10 0.00 33 1022.3
20260510213018 68 360 0.0 0.0 0.00 0.10 0.00 34 1022.4
20260510211513 67 360 0.0 0.0 0.00 0.10 0.00 34 1022.6
20260510210009 67 360 0.0 0.0 0.00 0.10 0.00 35 1022.6
20260510204509 66 360 0.0 0.0 0.00 0.10 0.00 36 1022.5
20260510203013 66 360 0.0 0.0 0.00 0.10 0.00 37 1022.7
20260510201506 66 360 0.0 0.0 0.00 0.10 0.00 39 1022.9
20260510200105 67 360 0.0 0.0 0.00 0.10 0.00 40 1022.8
20260510194534 66 360 0.0 0.0 0.00 0.10 0.00 43 1022.7
20260510193028 65 360 0.0 0.0 0.00 0.10 0.00 42 1022.8
20260510191527 64 360 0.0 0.0 0.00 0.10 0.00 46 1022.6
20260510190035 63 360 0.0 0.0 0.00 0.10 0.00 47 1022.9
20260510184516 62 360 0.0 0.0 0.00 0.10 0.00 50 1023.0
20260510183018 61 360 0.0 0.0 0.00 0.10 0.00 51 1023.1
20260510181555 61 360 0.0 0.0 0.00 0.10 0.00 53 1023.3
20260510180054 60 360 0.0 0.0 0.00 0.10 0.10 56 1023.1
20260510174535 60 360 0.0 0.0 0.00 0.10 0.10 59 1023.1
20260510173034 60 360 0.0 0.0 0.00 0.10 0.10 59 1022.9
20260510171536 59 360 0.0 0.0 0.00 0.10 0.10 64 1023.0
20260510170031 57 360 0.0 0.0 0.00 0.10 0.10 66 1022.8
20260510164527 56 360 0.0 0.0 0.00 0.10 0.10 69 1022.7
20260510163027 55 360 0.0 0.0 0.00 0.10 0.10 71 1022.6
20260510161524 54 69 0.0 0.0 0.00 0.10 0.10 75 1022.4
20260510160023 52 69 0.0 0.0 0.00 0.10 0.10 78 1022.1
20260510154524 51 360 0.0 0.0 0.01 0.10 0.10 83 1021.8
20260510153039 49 360 0.0 0.0 0.03 0.10 0.10 84 1022.0
20260510151521 48 360 0.0 0.0 0.05 0.10 0.10 84 1021.6
20260510150021 48 360 0.0 0.0 0.06 0.10 0.10 84 1021.3
20260510144536 48 360 0.0 0.0 0.05 0.09 0.09 83 1021.2
20260510143015 48 360 0.0 0.0 0.04 0.07 0.07 82 1021.8
20260510141514 48 360 0.0 0.0 0.03 0.05 0.05 81 1022.2
20260510140012 49 360 0.0 0.0 0.02 0.04 0.04 81 1022.3
20260510134548 49 360 0.0 0.0 0.03 0.04 0.04 80 1021.8
20260510133035 50 360 0.0 0.0 0.02 0.03 0.03 79 1021.1
20260510131530 50 360 0.0 0.0 0.01 0.02 0.02 78 1020.8
20260510130027 51 360 0.0 0.0 0.01 0.02 0.02 77 1020.5
20260510124524 51 360 0.0 0.0 0.00 0.01 0.01 75 1020.1
20260510123021 52 360 0.0 0.0 0.00 0.01 0.01 73 1019.6
20260510121516 52 360 0.0 0.0 0.00 0.01 0.01 70 1019.2
20260510120015 53 360 0.0 0.0 0.00 0.01 0.01 68 1018.6
20260510114508 54 360 0.0 0.0 0.00 0.01 0.01 66 1018.1
20260510113005 55 360 0.0 0.0 0.00 0.01 0.01 65 1018.1
20260510111500 55 360 0.0 0.0 0.00 0.01 0.01 62 1016.9
20260510110101 55 360 0.0 0.0 0.00 0.01 0.01 60 1016.2
20260510104629 55 360 0.0 0.0 0.00 0.01 0.01 59 1016.3
20260510103058 56 360 0.0 0.0 0.00 0.01 0.01 59 1016.5
20260510101601 56 360 0.0 0.0 0.00 0.01 0.01 59 1017.1
20260510100056 56 360 0.0 0.0 0.00 0.01 0.01 59 1016.8
20260510094559 56 360 0.0 0.0 0.00 0.01 0.01 60 1016.5
20260510093052 56 360 0.0 0.0 0.00 0.01 0.01 60 1016.2
20260510091545 56 360 0.0 0.0 0.00 0.01 0.01 62 1015.7
20260510090046 56 360 0.0 0.0 0.00 0.01 0.01 63 1015.4
20260510084558 56 360 0.0 0.0 0.00 0.01 0.01 64 1015.4
20260510083105 56 360 0.0 0.0 0.00 0.01 0.01 65 1015.4
20260510081601 56 360 0.0 0.0 0.00 0.01 0.01 66 1015.1
20260510080041 56 360 0.0 0.0 0.00 0.01 0.01 67 1015.4
20260510074542 56 360 0.0 0.0 0.00 0.01 0.01 67 1015.7
20260510073048 56 360 0.0 0.0 0.00 0.01 0.01 68 1015.7
20260510071539 56 360 0.0 0.0 0.00 0.01 0.01 68 1015.7
20260510070038 56 360 0.0 0.0 0.00 0.01 0.01 70 1015.6
20260510064535 56 360 0.0 0.0 0.00 0.01 0.01 74 1015.0
20260510063034 56 360 0.0 0.0 0.00 0.01 0.01 74 1015.0
20260510061529 55 360 0.0 0.0 0.00 0.01 0.01 75 1014.0
20260510060036 55 360 0.0 0.0 0.00 0.01 0.01 75 1013.3
20260510054522 55 360 0.0 0.0 0.00 0.01 0.01 74 1012.8
20260510053019 55 360 0.0 0.0 0.00 0.01 0.01 73 1012.5
20260510051518 56 360 0.0 0.0 0.00 0.01 0.01 70 1012.3
20260510050012 57 360 0.0 0.0 0.00 0.01 0.01 67 1012.1
20260510044507 58 360 0.0 0.0 0.00 0.01 0.01 66 1011.2
20260510043004 59 360 0.0 0.0 0.00 0.01 0.01 64 1011.8
20260510041607 60 360 0.0 0.0 0.00 0.01 0.01 63 1011.2
20260510040104 62 360 0.0 0.0 0.00 0.01 0.01 61 1010.8
20260510034558 63 360 0.0 0.0 0.00 0.01 0.01 60 1010.3
20260510033047 64 360 0.0 0.0 0.00 0.01 0.01 58 1009.9
20260510031556 65 360 0.0 0.0 0.00 0.01 0.01 55 1009.6
20260510030010 66 360 0.0 0.0 0.00 0.01 0.01 53 1009.0
20260510024505 68 360 0.0 0.0 0.00 0.01 0.01 48 1007.9
20260510023058 71 244 0.0 0.0 0.00 0.01 0.01 41 1007.0
20260510021553 73 245 0.0 0.0 0.00 0.01 0.01 37 1006.6
20260510020049 75 245 0.0 0.0 0.00 0.01 0.01 33 1005.7
20260510014546 77 245 0.0 0.0 0.00 0.01 0.01 30 1005.4
20260510013049 78 244 0.0 0.0 0.00 0.01 0.01 29 1005.1
20260510011541 80 244 0.0 0.0 0.00 0.01 0.01 29 1004.6
20260510010040 81 214 0.0 0.0 0.00 0.01 0.01 29 1004.4
20260510004540 81 202 0.0 0.0 0.00 0.01 0.01 32 1004.2
20260510003037 81 201 0.0 0.0 0.00 0.01 0.01 32 1004.3
20260510001536 80 201 0.0 0.0 0.00 0.01 0.01 32 1004.2
20260510000037 79 360 0.0 0.0 0.00 0.01 0.01 34 1004.3
20260509234539 79 203 0.0 0.0 0.00 0.01 0.01 36 1004.4
20260509233032 79 188 0.0 0.0 0.00 0.01 0.01 34 1004.4
20260509231532 80 186 0.0 0.0 0.00 0.01 0.01 34 1004.5